Total_Precipitation_Accumulation
0.34 0.28 0.24 0.18 0.15 0.12 0.11 0.16 0.33 0.60 0.85 1.16 1.27 1.28 1.33 1.43 1.38 1.18 0.95 0.75 0.64 0.58 0.54 0.50 0.43 0.37 0.31 0.26 0.22 0.18 0.17 0.17 0.17 0.17 0.16 0.15 0.14 0.13 0.12 0.11 0.09 0.07 0.05 0.04
0.29 0.25 0.27 0.25 0.27 0.27 0.25 0.31 0.49 0.71 1.05 1.42 1.52 1.56 1.51 1.48 1.45 1.33 1.11 0.91 0.75 0.66 0.60 0.56 0.52 0.47 0.44 0.41 0.36 0.31 0.27 0.26 0.24 0.21 0.19 0.16 0.14 0.12 0.09 0.06 0.04 0.02 0.02 0.01
0.33 0.25 0.32 0.43 0.42 0.33 0.34 0.44 0.60 0.71 0.91 1.16 1.26 1.34 1.42 1.47 1.47 1.42 1.26 1.07 0.94 0.90 0.84 0.79 0.71 0.65 0.59 0.52 0.43 0.35 0.30 0.26 0.22 0.18 0.14 0.11 0.08 0.06 0.05 0.04 0.04 0.03 0.02 0.02
0.23 0.30 0.49 0.44 0.35 0.32 0.35 0.45 0.48 0.53 0.62 0.82 0.96 1.08 1.23 1.34 1.41 1.40 1.28 1.21 1.14 1.04 0.96 0.89 0.79 0.64 0.48 0.37 0.30 0.25 0.21 0.17 0.13 0.10 0.07 0.05 0.04 0.04 0.04 0.05 0.05 0.05 0.04 0.03
0.19 0.33 0.46 0.44 0.29 0.25 0.36 0.46 0.42 0.41 0.44 0.52 0.59 0.68 0.92 1.02 1.07 1.16 1.15 1.09 1.05 0.98 0.93 0.83 0.67 0.48 0.33 0.25 0.20 0.16 0.14 0.11 0.07 0.05 0.04 0.04 0.04 0.04 0.05 0.06 0.06 0.05 0.04 0.05
0.19 0.34 0.48 0.49 0.21 0.13 0.26 0.54 0.52 0.46 0.44 0.48 0.60 0.67 0.66 0.65 0.66 0.72 0.78 0.82 0.83 0.76 0.68 0.57 0.43 0.30 0.24 0.20 0.16 0.13 0.10 0.07 0.05 0.04 0.04 0.04 0.05 0.05 0.05 0.06 0.07 0.05 0.05 0.07
0.23 0.37 0.45 0.24 0.15 0.22 0.48 0.61 0.54 0.46 0.49 0.59 0.65 0.56 0.42 0.38 0.44 0.50 0.57 0.61 0.59 0.54 0.49 0.38 0.27 0.22 0.21 0.18 0.14 0.11 0.08 0.07 0.06 0.04 0.04 0.04 0.06 0.07 0.06 0.06 0.07 0.07 0.08 0.10
0.32 0.42 0.45 0.19 0.20 0.36 0.42 0.35 0.33 0.33 0.35 0.36 0.32 0.28 0.24 0.23 0.28 0.35 0.43 0.47 0.43 0.40 0.34 0.26 0.21 0.19 0.18 0.16 0.11 0.08 0.09 0.09 0.07 0.05 0.03 0.03 0.07 0.09 0.07 0.07 0.09 0.09 0.10 0.12
0.30 0.38 0.31 0.15 0.16 0.18 0.20 0.23 0.21 0.24 0.25 0.19 0.19 0.21 0.19 0.17 0.21 0.27 0.29 0.28 0.24 0.21 0.20 0.19 0.16 0.16 0.16 0.11 0.07 0.07 0.09 0.10 0.08 0.05 0.04 0.03 0.05 0.07 0.07 0.08 0.07 0.06 0.07 0.10
0.13 0.20 0.19 0.15 0.14 0.13 0.14 0.16 0.18 0.19 0.20 0.18 0.13 0.10 0.10 0.15 0.22 0.23 0.20 0.16 0.15 0.14 0.15 0.16 0.14 0.14 0.14 0.10 0.09 0.12 0.13 0.11 0.08 0.07 0.06 0.04 0.03 0.03 0.03 0.04 0.04 0.05 0.08 0.09
0.11 0.17 0.18 0.21 0.18 0.15 0.15 0.15 0.16 0.18 0.21 0.17 0.11 0.09 0.10 0.13 0.16 0.16 0.15 0.14 0.16 0.18 0.17 0.14 0.12 0.12 0.10 0.08 0.09 0.14 0.14 0.10 0.09 0.08 0.06 0.06 0.05 0.03 0.02 0.02 0.01 0.02 0.04 0.05
0.15 0.18 0.21 0.27 0.19 0.14 0.20 0.25 0.27 0.26 0.20 0.15 0.12 0.11 0.11 0.11 0.12 0.12 0.14 0.15 0.17 0.16 0.12 0.09 0.07 0.07 0.04 0.03 0.05 0.08 0.10 0.09 0.07 0.06 0.05 0.04 0.06 0.07 0.02 0.01 0.01 0.01 0.02 0.03
0.13 0.12 0.17 0.27 0.24 0.24 0.27 0.27 0.25 0.19 0.13 0.11 0.11 0.13 0.14 0.14 0.13 0.12 0.11 0.12 0.12 0.09 0.07 0.06 0.04 0.03 0.02 0.01 0.01 0.02 0.04 0.04 0.03 0.03 0.03 0.03 0.05 0.11 0.14 0.08 0.02 0.01 0.01 0.02
0.29 0.26 0.33 0.36 0.30 0.24 0.21 0.17 0.15 0.13 0.14 0.13 0.14 0.15 0.14 0.11 0.09 0.08 0.08 0.06 0.05 0.04 0.03 0.02 0.01 0.01 0.00 0.00 0.00 0.01 0.02 0.02 0.01 0.02 0.01 0.02 0.04 0.06 0.11 0.17 0.15 0.11 0.05 0.02
0.35 0.32 0.34 0.32 0.23 0.18 0.15 0.13 0.14 0.16 0.17 0.16 0.13 0.11 0.09 0.08 0.07 0.04 0.03 0.02 0.02 0.02 0.01 0.01 0.00 0.00 0.00 0.00 0.01 0.01 0.01 0.02 0.02 0.01 0.01 0.02 0.02 0.03 0.05 0.09 0.13 0.14 0.12 0.07
0.32 0.26 0.23 0.19 0.14 0.13 0.13 0.12 0.12 0.12 0.12 0.10 0.08 0.07 0.05 0.04 0.02 0.01 0.01 0.01 0.01 0.01 0.00 0.00 0.00 0.00 0.00 0.00 0.01 0.01 0.01 0.01 0.01 0.01 0.01 0.01 0.01 0.02 0.04 0.07 0.09 0.10 0.09 0.07
0.27 0.22 0.17 0.13 0.11 0.09 0.09 0.09 0.08 0.06 0.05 0.05 0.04 0.02 0.02 0.01 0.01 0.02 0.02 0.01 0.00 0.00 0.00 0.00 0.00 0.00 0.00 0.00 0.01 0.01 0.02 0.02 0.01 0.01 0.01 0.01 0.01 0.02 0.03 0.06 0.08 0.09 0.07 0.05
0.21 0.16 0.12 0.08 0.06 0.05 0.05 0.04 0.04 0.03 0.02 0.02 0.01 0.01 0.01 0.01 0.01 0.01 0.00 0.00 0.00 0.00 0.00 0.00 0.00 0.00 0.00 0.00 0.00 0.00 0.01 0.01 0.01 0.01 0.01 0.00 0.00 0.01 0.01 0.03 0.05 0.07 0.07 0.06
0.15 0.10 0.05 0.03 0.02 0.02 0.02 0.02 0.02 0.01 0.01 0.00 0.00 0.00 0.00 0.00 0.00 0.00 0.00 0.00 0.00 0.00 0.00 0.00 0.00 0.00 0.00 0.00 0.00 0.00 0.00 0.00 0.00 0.00 0.00 0.00 0.00 0.00 0.01 0.01 0.03 0.04 0.05 0.06
0.09 0.05 0.02 0.02 0.02 0.01 0.01 0.01 0.00 0.00 0.00 0.00 0.00 0.00 0.00 0.00 0.00 0.00 0.00 0.00 0.00 0.00 0.00 0.00 0.00 0.00 0.00 0.00 0.00 0.00 0.00 0.00 0.00 0.00 0.00 0.00 0.00 0.00 0.00 0.00 0.01 0.02 0.03 0.05
0.04 0.02 0.01 0.01 0.01 0.01 0.00 0.00 0.00 0.00 0.00 0.00 0.00 0.00 0.00 0.00 0.00 0.00 0.00 0.00 0.00 0.00 0.00 0.00 0.00 0.00 0.00 0.00 0.00 0.00 0.00 0.00 0.00 0.00 0.00 0.00 0.00 0.00 0.00 0.00 0.01 0.01 0.02 0.03
0.02 0.01 0.01 0.01 0.01 0.00 0.00 0.00 0.00 0.00 0.00 0.00 0.00 0.00 0.00 0.00 0.00 0.00 0.00 0.00 0.00 0.00 0.00 0.00 0.00 0.00 0.00 0.00 0.00 0.00 0.00 0.00 0.00 0.00 0.00 0.00 0.00 0.00 0.00 0.00 0.00 0.00 0.00 0.01
0.02 0.01 0.00 0.00 0.00 0.00 0.00 0.00 0.00 0.00 0.00 0.00 0.00 0.00 0.00 0.00 0.00 0.00 0.00 0.00 0.00 0.00 0.00 0.00 0.00 0.00 0.00 0.00 0.00 0.00 0.00 0.00 0.00 0.00 0.00 0.00 0.00 0.00 0.00 0.00 0.00 0.00 0.00 0.00
0.03 0.01 0.01 0.00 0.00 0.00 0.00 0.00 0.00 0.00 0.00 0.00 0.00 0.00 0.00 0.00 0.00 0.00 0.00 0.00 0.00 0.00 0.00 0.00 0.00 0.00 0.00 0.00 0.00 0.00 0.00 0.00 0.00 0.00 0.00 0.00 0.00 0.00 0.00 0.00 0.00 0.00 0.00 0.00
0.04 0.02 0.01 0.01 0.01 0.00 0.00 0.00 0.00 0.00 0.00 0.00 0.00 0.00 0.00 0.00 0.00 0.00 0.00 0.00 0.00 0.00 0.00 0.00 0.00 0.00 0.00 0.00 0.00 0.00 0.00 0.00 0.00 0.00 0.00 0.00 0.00 0.00 0.00 0.00 0.00 0.00 0.00 0.00
0.09 0.06 0.03 0.02 0.01 0.00 0.00 0.00 0.00 0.00 0.00 0.00 0.00 0.00 0.00 0.00 0.00 0.00 0.00 0.00 0.00 0.00 0.00 0.00 0.00 0.00 0.00 0.00 0.00 0.00 0.00 0.00 0.00 0.00 0.00 0.00 0.00 0.00 0.00 0.00 0.00 0.00 0.00 0.00
0.16 0.13 0.10 0.06 0.03 0.00 0.00 0.00 0.00 0.00 0.00 0.00 0.00 0.00 0.00 0.00 0.00 0.00 0.00 0.00 0.00 0.00 0.00 0.00 0.00 0.00 0.00 0.00 0.00 0.00 0.00 0.00 0.00 0.00 0.00 0.00 0.00 0.00 0.00 0.00 0.00 0.00 0.00 0.00